Вернуться в каталог

COSMOS 2583

АктивенВоенныеPO
NORAD 62904·PAYLOAD·🇷🇺 Russia

Запущен Feb 5, 2025 с Plesetsk Cosmodrome

Loading…

Ближайшие Пролёты (ближайшие 24 часа)

TLE

СвежийSource: Space-Track

Эпоха: Sep 14, 2026, 18:28 UTC

1 62904U 25026C   26257.76994170  .00001647  00000-0  14774-3 0  9995
2 62904  81.9991 343.0774 0011422 116.7636 243.4754 14.95158315 87587

Отслеживайте COSMOS 2583 в реальном времени с AllMySat

Download on the App Store